Weather History for Saint Peters, PE

Change the Weather History Date:

Saturday, October 6, 2012

  Actual Average Record
Temperature  
Mean Temperature 60 °F -  
Max Temperature 67 °F - - ()
Min Temperature 53 °F - - ()
Degree Days  
Heating Degree Days 5    
Growing Degree Days 10 (Base 50)    
Moisture  
Dew Point 53 °F    
Average Humidity 81    
Maximum Humidity 93    
Minimum Humidity 57    
Precipitation  
Precipitation 0.00 in - - ()
Sea Level Pressure  
Sea Level Pressure 29.86 in    
Wind  
Wind Speed 8 mph ()    
Max Wind Speed 17 mph    
Max Gust Speed 26 mph    
T = Trace of Precipitation, MM = Missing Value Source: Averaged Metar Reports

Daily Weather History Graph

Daily Weather History Graph

Search for Another Location

Airport:

Trip Planner

Search our weather history database for the weather conditions in past years. The results will help you decide how hot, cold, wet, or windy it might be!

Date:

Astronomy

Oct. 06, 2012 Rise Set
Actual Time 7:16 AM ADT 6:39 PM ADT
Civil Twilight 6:45 AM ADT 7:09 PM ADT
Nautical Twilight 6:11 AM ADT 7:44 PM ADT
Astronomical Twilight 5:35 AM ADT 8:19 PM ADT
Moon 10:35 PM ADT (10/6) 1:23 PM ADT (10/6)
Length of Visible Light 12h 23m
Length of Day
11h 23m
Waning Gibbous, 66% of the Moon is Illuminated
Oct 6
Waning Gibbous
Oct 8
Last Quarter
Oct 15
New
Oct 22
First Quarter
Oct 29
Full

Hourly Weather History & Observations

Time (ADT) Temp. Dew Point Humidity Pressure Visibility Wind Dir Wind Speed Gust Speed Precip Events Conditions
12:00 AM 54.3 °F 51.1 °F 89% 29.91 in - South 4.6 mph - N/A   Unknown
1:00 AM 54.0 °F 51.3 °F 91% 29.92 in - South 3.5 mph - N/A   Unknown
2:00 AM 54.0 °F 51.6 °F 92% 29.92 in - South 4.6 mph - N/A   Unknown
3:00 AM 54 °F 52 °F 91% 29.91 in - SSW 5.8 mph - -  
3:00 AM 54.3 °F 52.2 °F 92% 29.91 in - SSW 5.8 mph - N/A   Unknown
4:00 AM 54.0 °F 51.8 °F 92% 29.91 in - South 4.6 mph - N/A   Unknown
5:00 AM 54.0 °F 52.0 °F 93% 29.91 in - South 5.8 mph - N/A   Unknown
6:00 AM 54.3 °F 52.2 °F 92% 29.91 in - South 5.8 mph - N/A   Unknown
7:00 AM 54.5 °F 52.0 °F 91% 29.92 in - South 5.8 mph - N/A   Unknown
8:00 AM 54.3 °F 51.8 °F 91% 29.91 in - South 9.2 mph - N/A   Unknown
9:00 AM 56 °F 52 °F 83% 29.91 in - South 11.5 mph - -  
9:00 AM 56.5 °F 52.3 °F 86% 29.91 in - South 11.5 mph 19.6 mph N/A   Unknown
10:00 AM 58.1 °F 52.3 °F 81% 29.90 in - South 16.1 mph 24.2 mph N/A   Unknown
11:00 AM 60.1 °F 52.0 °F 75% 29.87 in - South 17.3 mph - N/A   Unknown
12:00 PM 62.6 °F 53.4 °F 72% 29.88 in - South 17.3 mph 24.2 mph N/A   Unknown
1:00 PM 64.9 °F 54.5 °F 69% 29.86 in - South 13.8 mph 21.9 mph N/A   Unknown
2:00 PM 66.6 °F 55.2 °F 67% 29.84 in - South 15.0 mph 23.0 mph N/A   Unknown
3:00 PM 67 °F 55 °F 57% 29.83 in - South 15.0 mph - -  
3:00 PM 66.9 °F 55.2 °F 66% 29.83 in - South 15.0 mph - N/A   Unknown
4:00 PM 65.1 °F 55.0 °F 70% 29.82 in - South 16.1 mph 24.2 mph N/A   Unknown
5:00 PM 63.9 °F 54.5 °F 72% 29.81 in - South 15.0 mph 23.0 mph N/A   Unknown
6:00 PM 61.0 °F 54.0 °F 78% 29.81 in - South 12.7 mph - N/A   Unknown
7:00 PM 59.4 °F 53.6 °F 81% 29.81 in - South 13.8 mph 20.7 mph N/A   Unknown
8:00 PM 58.5 °F 53.1 °F 82% 29.79 in - South 15.0 mph 26.5 mph N/A   Unknown
9:00 PM 58 °F 53 °F 76% 29.79 in - South 16.1 mph - -  
9:00 PM 57.7 °F 52.5 °F 83% 29.79 in - South 16.1 mph 25.3 mph N/A   Unknown
10:00 PM 57.4 °F 52.3 °F 83% 29.80 in - South 12.7 mph 20.7 mph N/A   Unknown
11:00 PM 57.9 °F 52.9 °F 83% 29.79 in - South 15.0 mph 20.7 mph N/A   Unknown